SCP
0 0 0 0 0 0 0 0 0 0 0 0 0 0 0 0 0 0 0 0 0 0
0 0 0 0 0 0 0 0 0 0 0 0 0 0 0 0 0 0 0 0 0 0
0 0 0 0 0 0 0 0 0 0 0 0 0 0 0 0 0 0 0 0 0 0
0 0 0 0 0 0 0 0 0 0 0 0 0 0 0 0 0 0 0 0 0 0
0 0 0 0 0 0 0 0 0 0 0 0 0 0 0 0 0 0 0 0 0 0
0 0 0 0 0 0 0 0 0 0 0 0 0 0 0 0 0 0 0 0 0 0
0 0 0 0 0 0 0 0 0 0 0 0 0 0 0 0 0 0 0 0 0 0
0 0 0 0 0 0 0 0 0 0 0 0 0 0 0 0 0 0 0 0 0 0
0 0 0 0 0 0 0 0 0 0 0 0 0 0 0 0 0 0 0 0 0 0
0 0 0 0 0 0 0 0 0 0 0 0 0 0 0 0 0 0 0 0 0 0
0 0 0 0 0 0 0 0 0 0 0 0 0 0 0 0 0 0 0 0 0 0
0 0 0 0 0 0 0 0 0 0 0 0 0 0 0 0 0 0 0 0 0 0
0 0 0 0 0 0 0 0 0 0 0 0 0 0 0 0 0 0 0 0 0 0
0 0 0 0 0 0 0 0 0 0 0 0 0 0 0 0 0 0 0 0 0 0
Wind_Speed_500mb
63 66 65 64 63 61 58 54 51 51 50 43 42 45 45 46 52 56 59 60 62 63
54 57 58 59 58 58 58 56 51 48 40 42 44 46 50 52 53 53 55 59 62 62
46 47 50 52 50 50 50 52 54 56 57 54 51 52 55 58 58 55 52 54 57 59
35 35 36 37 39 41 41 40 38 37 38 40 42 45 47 51 55 58 61 62 62 61
30 31 31 30 30 28 27 27 28 30 32 35 37 39 40 42 45 48 51 53 56 58
27 27 26 26 26 26 27 29 30 31 32 34 37 40 42 44 43 43 44 46 48 49
27 27 28 28 28 28 28 30 33 36 38 40 41 44 45 46 45 45 44 44 44 44
27 28 29 30 31 32 33 36 39 40 41 42 43 47 48 47 46 44 42 40 40 40
29 30 31 33 33 34 34 35 37 39 42 43 43 47 50 51 48 45 44 43 41 40
30 31 33 35 37 37 36 36 36 38 40 41 41 44 49 50 50 47 46 45 45 45
34 37 38 38 39 39 39 38 38 37 39 43 42 48 52 53 52 50 50 47 48 49
34 37 39 40 41 43 43 42 43 42 42 43 44 50 60 59 57 55 56 52 50 51
35 37 36 37 37 38 38 36 36 37 38 38 40 38 41 46 53 58 61 60 56 52
31 34 37 38 41 42 43 43 42 41 39 38 39 37 38 41 51 56 62 67 66 63
Wind_Direction_500mb
239 243 246 250 253 257 259 259 255 257 262 269 269 265 264 266 265 265 266 267 270 272
247 249 251 253 255 255 255 256 255 251 247 253 257 260 262 264 265 265 267 267 268 269
251 249 248 249 250 250 249 250 251 249 253 253 255 256 259 261 263 261 258 260 261 261
248 243 241 240 239 240 243 246 249 253 256 257 259 260 261 262 262 261 262 265 268 270
238 236 235 236 236 236 238 243 248 255 262 266 269 270 270 269 269 268 267 267 267 268
238 237 236 235 239 247 254 259 261 263 267 272 274 275 276 275 275 274 274 274 273 272
241 241 242 247 253 257 260 263 266 269 269 270 272 276 279 279 279 278 277 277 277 277
259 261 262 263 264 265 266 268 269 268 268 271 273 274 275 278 279 278 276 275 276 276
263 269 272 272 270 271 272 274 275 277 279 279 277 276 275 275 275 275 274 271 272 276
284 285 286 286 285 283 283 284 284 283 282 280 276 271 272 275 275 277 277 277 276 277
295 297 297 297 297 294 293 292 290 292 293 290 287 284 282 285 281 276 275 273 273 274
310 308 306 304 304 303 300 298 294 293 291 289 288 281 276 275 282 284 285 283 280 281
318 318 319 317 316 312 310 308 304 300 298 298 293 288 284 286 286 286 289 289 290 286
318 316 313 311 308 307 306 306 305 301 297 294 292 293 293 294 298 300 296 292 292 292
Wind_Speed_850mb
63 66 65 64 63 61 58 54 51 51 50 43 42 45 45 46 52 56 59 60 62 63
54 57 58 59 58 58 58 56 51 48 40 42 44 46 50 52 53 53 55 59 62 62
46 47 50 52 50 50 50 52 54 56 57 54 51 52 55 58 58 55 52 54 57 59
35 35 36 37 39 41 41 40 38 37 38 40 42 45 47 51 55 58 61 62 62 61
30 31 31 30 30 28 27 27 28 30 32 35 37 39 40 42 45 48 51 53 56 58
27 27 26 26 26 26 27 29 30 31 32 34 37 40 42 44 43 43 44 46 48 49
27 27 28 28 28 28 28 30 33 36 38 40 41 44 45 46 45 45 44 44 44 44
27 28 29 30 31 32 33 36 39 40 41 42 43 47 48 47 46 44 42 40 40 40
29 30 31 33 33 34 34 35 37 39 42 43 43 47 50 51 48 45 44 43 41 40
30 31 33 35 37 37 36 36 36 38 40 41 41 44 49 50 50 47 46 45 45 45
34 37 38 38 39 39 39 38 38 37 39 43 42 48 52 53 52 50 50 47 48 49
34 37 39 40 41 43 43 42 43 42 42 43 44 50 60 59 57 55 56 52 50 51
35 37 36 37 37 38 38 36 36 37 38 38 40 38 41 46 53 58 61 60 56 52
31 34 37 38 41 42 43 43 42 41 39 38 39 37 38 41 51 56 62 67 66 63
Wind_Direction_850mb
239 243 246 250 253 257 259 259 255 257 262 269 269 265 264 266 265 265 266 267 270 272
247 249 251 253 255 255 255 256 255 251 247 253 257 260 262 264 265 265 267 267 268 269
251 249 248 249 250 250 249 250 251 249 253 253 255 256 259 261 263 261 258 260 261 261
248 243 241 240 239 240 243 246 249 253 256 257 259 260 261 262 262 261 262 265 268 270
238 236 235 236 236 236 238 243 248 255 262 266 269 270 270 269 269 268 267 267 267 268
238 237 236 235 239 247 254 259 261 263 267 272 274 275 276 275 275 274 274 274 273 272
241 241 242 247 253 257 260 263 266 269 269 270 272 276 279 279 279 278 277 277 277 277
259 261 262 263 264 265 266 268 269 268 268 271 273 274 275 278 279 278 276 275 276 276
263 269 272 272 270 271 272 274 275 277 279 279 277 276 275 275 275 275 274 271 272 276
284 285 286 286 285 283 283 284 284 283 282 280 276 271 272 275 275 277 277 277 276 277
295 297 297 297 297 294 293 292 290 292 293 290 287 284 282 285 281 276 275 273 273 274
310 308 306 304 304 303 300 298 294 293 291 289 288 281 276 275 282 284 285 283 280 281
318 318 319 317 316 312 310 308 304 300 298 298 293 288 284 286 286 286 289 289 290 286
318 316 313 311 308 307 306 306 305 301 297 294 292 293 293 294 298 300 296 292 292 292